Location: Bouchavesnes-Bergen
(49.9859°N, 2.9203°E)
Time: 01:02:02
(UTC+00:00)

Envisat - Pass Details

Date: 10 February 2023
Orbit: 763 x 765 km, 98.2° (Epoch: 28 March)

Event Time Altitude Azimuth Distance (km) Brightness Sun altitude
Rises 03:00:20 0° 23° (NNE) 3,245 6.8 -39.5°
Reaches altitude 10° 03:03:01 10° 36° (NE) 2,313 6.1 -39.1°
Enters shadow 03:05:39 22° 64° (ENE) 1,620 5.2 -38.7°
